Flag for Burkina Faso Weather past 2 weeks in Bobo-Dioulasso, Burkina Faso

Now
88 °F

Scattered clouds.


Feels Like: 98 °F
Forecast: 72 / 86 °F
Wind: 2 mph from North

Location: Ouagadougou Airport

Current Time: Jul 26, 2014 at 1:47:33 PM

Latest Report: Jul 26, 2014 at 1:00 PM


Visibility: N/A

Pressure: 29.95 "Hg

Humidity: 66%

Dew point: 75 °F

Location of Bobo-DioulassoLocation

Historic Weather in Bobo-Dioulasso — Graph

°F

Bobo-Dioulasso temperature yesterday

Maximum temperature yesterday: 90 °F (at 3:00 PM)
Minimum temperature yesterday: 75 °F (at 3:00 AM)
Average temperature yesterday: 82 °F

Past Weeks' High & Low Weather Summary

 TemperatureHumidityPressure
High95 °F (Jul 11, 2:00 PM)100% (Jul 14, 2:00 AM)30.15 "Hg (Jul 14, 2:00 AM)
Low70 °F (Jul 17, 9:00 AM)49% (Jul 15, 3:00 PM)29.86 "Hg (Jul 13, 3:00 PM)
Average82 °F77%29.97 "Hg
* Reported Jul 11 12:00 Noon — Jul 26 12:00 Noon, Bobo-Dioulasso, Weather by CustomWeather, © 2014

Note: Actual official high and low records may vary slightly from our data, if they occured in-between our weather recording intervals... More about our weather records

Advertising

Bobo-Dioulasso weather history for previous 24 hours

 ConditionsComfort  
Time TempWeatherWind HumidityBarometerVisibility
12:00 PM
Jul 26
86 °FScattered clouds.6 mph70%29.98 "HgN/A
11:00 AM84 °FBroken clouds.5 mph74%30.01 "HgN/A
10:00 AM84 °FBroken clouds.6 mph74%30.01 "HgN/A
9:00 AM82 °FPartly sunny.9 mph79%30.04 "HgN/A
8:00 AM79 °FPartly sunny.6 mph89%30.04 "HgN/A
7:00 AM77 °FPassing clouds.6 mph94%30.01 "HgN/A
6:00 AM75 °FBroken clouds.7 mph94%29.98 "HgN/A
5:00 AM75 °FPassing clouds.5 mph94%29.98 "HgN/A
4:00 AM75 °FThunderstorms. Passing clouds.6 mph94%29.98 "HgN/A
3:00 AM77 °FThunderstorms. Passing clouds.6 mph89%29.98 "HgN/A
2:00 AM77 °FThunderstorms. Passing clouds.6 mph94%29.95 "HgN/A
1:00 AM81 °FThunderstorms. Partly cloudy.9 mph79%29.98 "HgN/A
12:00 AM81 °FThunderstorms. Passing clouds.8 mph84%29.98 "HgN/A
10:00 PM
Jul 25
82 °FThunderstorms. Passing clouds.8 mph79%29.98 "HgN/A
9:00 PM82 °FThunderstorms. Passing clouds.5 mph79%29.95 "HgN/A
8:00 PM84 °FThunderstorms. Passing clouds.3 mph74%29.92 "HgN/A
7:00 PM84 °FPassing clouds.3 mph74%29.92 "HgN/A
6:00 PM86 °FBroken clouds.8 mph70%29.89 "HgN/A
5:00 PM88 °FScattered clouds.5 mph62%29.89 "HgN/A
4:00 PM88 °FScattered clouds.8 mph62%29.89 "HgN/A
3:00 PM90 °FScattered clouds.7 mph63%29.89 "HgN/A
2:00 PM88 °FScattered clouds.9 mph66%29.89 "HgN/A
1:00 PM86 °FScattered clouds.8 mph70%29.92 "HgN/A
Weather by CustomWeather, © 2014

See weather overviewHow to use our weather pages